Date String (YYYY-MM-DD hh:mm:ss) UTC,Instrument flags,absolute air pressure of the measurement (hPa),sample flow rate (lpm),inlet stack bypass flow (lpm),air temperature of the measurement (°C),ambient temperature measured by the external sensor (°C),aerosol sample conditioner tube jacket temperature (°C),OPC LED temperature (°C),internal box temperature (°C),relative humidity of the measurement (%),span deviation,mass concentration of particles derived from Lorenz-Mie calculation of OPC scattering (μg/m³),mass concentration of particles derived from Lorenz-Mie calculation of OPC scattering (μg/m³),mass concentration of particles derived from Lorenz-Mie calculation of OPC scattering (μg/m³)
DateTimeUTC,F1_M11,P_M11,Q1_M11,Q2_M11,T1_M11,T2_M11,T3_M11,T4_M11,T5_M11,U1_M11,ZSPAN_M11,X0_M11,X2_M11,X1_M11
2023-07-24 16:00:00,SystemResetWarning,0835.6,4.99,000.00,028.9,027.0,000.0,037.1,030.5,33.2,0000.0,0016.35,0005.29,0004.43
2023-07-24 16:01:00,SystemResetWarning,0835.6,4.98,000.00,028.8,025.7,000.0,037.0,030.3,32.2,0000.0,0016.19,0005.31,0004.44
2023-07-24 16:02:00,SystemResetWarning,0835.6,5.02,000.00,028.8,025.1,000.0,036.9,030.2,31.2,0000.0,0016.40,0005.34,0004.45
2023-07-24 16:03:00,SystemResetWarning,0835.6,5.00,000.00,028.7,025.3,000.0,037.0,030.1,31.4,0000.0,0016.50,0005.36,0004.45
2023-07-24 16:04:00,SystemResetWarning,0835.6,4.99,000.00,028.7,025.7,000.0,037.0,030.1,31.7,0000.0,0015.67,0005.35,0004.45
2023-07-24 16:05:00,SystemResetWarning,0835.6,5.00,000.00,028.7,026.2,000.0,037.1,030.2,32.8,0000.0,0014.64,0005.37,0004.46
2023-07-24 16:06:00,SystemResetWarning,0835.7,5.00,000.00,028.7,026.6,000.0,037.1,030.3,31.8,0000.0,0014.64,0005.35,0004.46
2023-07-24 16:07:00,SystemResetWarning,0835.7,5.00,000.00,028.7,026.9,000.0,037.1,030.4,33.3,0000.0,0014.62,0005.36,0004.47
2023-07-24 16:08:00,SystemResetWarning,0835.7,4.99,000.00,028.8,027.2,000.0,037.1,030.5,34.4,0000.0,0014.30,0005.33,0004.46
2023-07-24 16:09:00,SystemResetWarning,0835.8,5.01,000.00,028.9,027.1,000.0,037.1,030.6,32.9,0000.0,0014.37,0005.34,0004.47
2023-07-24 16:10:00,SystemResetWarning,0835.8,4.98,000.00,028.9,025.8,000.0,037.0,030.4,33.8,0000.0,0014.39,0005.31,0004.45
2023-07-24 16:11:00,SystemResetWarning,0835.8,5.02,000.00,028.8,025.1,000.0,036.9,030.2,32.4,0000.0,0014.84,0005.28,0004.45
2023-07-24 16:12:00,SystemResetWarning,0835.9,5.01,000.00,028.8,025.3,000.0,036.9,030.1,32.0,0000.0,0015.48,0005.25,0004.46
2023-07-24 16:13:00,SystemResetWarning,0835.8,5.00,000.00,028.8,025.7,000.0,037.0,030.1,30.6,0000.0,0015.46,0005.22,0004.47
2023-07-24 16:14:00,SystemResetWarning,0835.8,4.99,000.00,028.8,026.1,000.0,037.0,030.2,31.3,0000.0,0015.56,0005.21,0004.47
2023-07-24 16:15:00,SystemResetWarning,0835.8,5.01,000.00,028.8,026.5,000.0,037.1,030.3,31.5,0000.0,0015.43,0005.21,0004.47
2023-07-24 16:16:00,SystemResetWarning,0835.8,4.99,000.00,028.8,026.9,000.0,037.1,030.4,31.5,0000.0,0015.91,0005.22,0004.48
2023-07-24 16:17:00,SystemResetWarning,0835.8,4.99,000.00,028.9,027.1,000.0,037.1,030.5,31.7,0000.0,0016.12,0005.27,0004.50
2023-07-24 16:18:00,SystemResetWarning,0835.8,5.00,000.00,028.9,026.4,000.0,037.0,030.4,31.8,0000.0,0017.48,0005.24,0004.50
2023-07-24 16:19:00,SystemResetWarning,0835.8,5.01,000.00,028.8,025.2,000.0,037.0,030.2,32.5,0000.0,0017.03,0005.25,0004.51
2023-07-24 16:20:00,SystemResetWarning,0835.8,5.00,000.00,028.8,025.1,000.0,036.9,030.1,32.1,0000.0,0016.48,0005.24,0004.51
2023-07-24 16:21:00,SystemResetWarning,0835.8,4.99,000.00,028.7,025.4,000.0,036.9,030.0,32.7,0000.0,0015.91,0005.22,0004.52
2023-07-24 16:22:00,SystemResetWarning,0835.8,5.00,000.00,028.7,025.8,000.0,037.0,030.1,32.8,0000.0,0015.89,0005.21,0004.54
2023-07-24 16:23:00,SystemResetWarning,0835.8,5.00,000.00,028.7,026.3,000.0,037.0,030.2,32.0,0000.0,0015.09,0005.24,0004.55
2023-07-24 16:24:00,SystemResetWarning,0835.8,5.00,000.00,028.8,026.7,000.0,037.1,030.3,32.2,0000.0,0014.54,0005.25,0004.56
2023-07-24 16:25:00,SystemResetWarning,0835.8,4.99,000.00,028.8,027.0,000.0,037.1,030.4,32.2,0000.0,0014.57,0005.25,0004.57
2023-07-24 16:26:00,SystemResetWarning,0835.8,4.99,000.00,028.8,027.3,000.0,037.1,030.5,33.0,0000.0,0013.35,0005.25,0004.59
2023-07-24 16:27:00,SystemResetWarning,0835.7,4.99,000.00,028.9,026.6,000.0,037.0,030.4,32.9,0000.0,0012.11,0005.23,0004.60
2023-07-24 16:28:00,SystemResetWarning,0835.6,5.01,000.00,028.8,025.3,000.0,037.0,030.2,34.3,0000.0,0011.82,0005.18,0004.60
2023-07-24 16:29:00,SystemResetWarning,0835.6,5.02,000.00,028.7,025.1,000.0,036.9,030.1,33.8,0000.0,0010.26,0005.20,0004.60
2023-07-24 16:30:00,SystemResetWarning,0835.8,4.99,000.00,028.7,025.5,000.0,036.9,030.0,33.2,0000.0,0009.76,0005.21,0004.61
2023-07-24 16:31:00,SystemResetWarning,0835.7,4.99,000.00,028.7,025.8,000.0,037.0,030.1,32.5,0000.0,0009.54,0005.18,0004.61
2023-07-24 16:32:00,SystemResetWarning,0835.8,5.00,000.00,028.7,026.3,000.0,037.0,030.2,33.0,0000.0,0009.69,0005.19,0004.60
2023-07-24 16:33:00,SystemResetWarning,0835.7,5.01,000.00,028.7,026.7,000.0,037.0,030.3,34.2,0000.0,0010.08,0005.20,0004.60
2023-07-24 16:34:00,SystemResetWarning,0835.7,5.00,000.00,028.8,027.0,000.0,037.1,030.4,34.1,0000.0,0010.83,0005.20,0004.61
2023-07-24 16:35:00,SystemResetWarning,0835.7,5.01,000.00,028.8,027.1,000.0,037.0,030.5,32.7,0000.0,0011.02,0005.21,0004.62
2023-07-24 16:36:00,SystemResetWarning,0835.7,4.98,000.00,028.9,025.8,000.0,036.9,030.3,32.4,0000.0,0010.84,0005.23,0004.64
2023-07-24 16:37:00,SystemResetWarning,0835.8,5.01,000.00,028.8,025.0,000.0,036.9,030.2,32.1,0000.0,0010.84,0005.22,0004.65
2023-07-24 16:38:00,SystemResetWarning,0835.7,5.01,000.00,028.8,025.2,000.0,036.9,030.1,32.3,0000.0,0011.51,0005.26,0004.67
2023-07-24 16:39:00,SystemResetWarning,0835.7,4.99,000.00,028.7,025.5,000.0,036.9,030.0,31.4,0000.0,0011.56,0005.25,0004.68
2023-07-24 16:40:00,SystemResetWarning,0835.7,5.00,000.00,028.7,026.0,000.0,037.0,030.1,31.2,0000.0,0011.94,0005.27,0004.70
2023-07-24 16:41:00,SystemResetWarning,0835.7,5.01,000.00,028.7,026.4,000.0,037.0,030.2,31.0,0000.0,0012.06,0005.27,0004.72
2023-07-24 16:42:00,SystemResetWarning,0835.7,5.01,000.00,028.8,026.8,000.0,037.0,030.3,31.4,0000.0,0012.47,0005.31,0004.75
2023-07-24 16:43:00,SystemResetWarning,0835.8,5.00,000.00,028.8,027.1,000.0,037.1,030.4,31.3,0000.0,0012.64,0005.33,0004.78
2023-07-24 16:44:00,SystemResetWarning,0835.8,4.99,000.00,028.9,027.2,000.0,037.1,030.5,31.7,0000.0,0011.89,0005.34,0004.80
2023-07-24 16:45:00,SystemResetWarning,0835.8,4.98,000.00,028.9,026.0,000.0,037.0,030.3,33.3,0000.0,0011.22,0005.34,0004.81
2023-07-24 16:46:00,SystemResetWarning,0835.8,5.01,000.00,028.8,025.1,000.0,036.9,030.0,32.0,0000.0,0011.34,0005.35,0004.82
2023-07-24 16:47:00,SystemResetWarning,0835.8,5.01,000.00,028.7,025.2,000.0,036.9,030.0,30.9,0000.0,0011.58,0005.33,0004.83
2023-07-24 16:48:00,SystemResetWarning,0835.7,5.00,000.00,028.7,025.6,000.0,036.9,030.0,31.3,0000.0,0011.78,0005.36,0004.84
2023-07-24 16:49:00,SystemResetWarning,0835.7,5.00,000.00,028.7,026.0,000.0,037.0,030.1,29.8,0000.0,0011.55,0005.36,0004.85
2023-07-24 16:50:00,SystemResetWarning,0835.8,5.00,000.00,028.7,026.4,000.0,037.0,030.2,28.2,0000.0,0012.13,0005.40,0004.86
2023-07-24 16:51:00,SystemResetWarning,0835.8,5.00,000.00,028.7,026.8,000.0,037.0,030.3,27.5,0000.0,0012.39,0005.39,0004.86
2023-07-24 16:52:00,SystemResetWarning,0835.8,5.00,000.00,028.8,027.1,000.0,037.1,030.4,26.9,0000.0,0012.45,0005.42,0004.87
2023-07-24 16:53:00,SystemResetWarning,0835.7,4.98,000.00,028.8,026.7,000.0,037.0,030.4,25.0,0000.0,0012.08,0005.40,0004.87
2023-07-24 16:54:00,SystemResetWarning,0835.8,5.01,000.00,028.8,025.4,000.0,036.9,030.1,25.8,0000.0,0011.85,0005.43,0004.86
2023-07-24 16:55:00,SystemResetWarning,0835.7,5.01,000.00,028.7,025.1,000.0,036.8,030.0,27.6,0000.0,0011.81,0005.41,0004.85
2023-07-24 16:56:00,SystemResetWarning,0835.8,4.99,000.00,028.6,025.4,000.0,036.9,030.0,29.7,0000.0,0011.60,0005.39,0004.85
2023-07-24 16:57:00,SystemResetWarning,0835.7,4.99,000.00,028.6,025.8,000.0,036.9,030.0,28.1,0000.0,0011.36,0005.39,0004.85
2023-07-24 16:58:00,SystemResetWarning,0835.7,5.00,000.00,028.6,026.2,000.0,036.9,030.1,28.4,0000.0,0011.48,0005.40,0004.84
2023-07-24 16:59:00,SystemResetWarning,0835.7,5.01,000.00,028.7,026.6,000.0,037.0,030.2,28.9,0000.0,0011.74,0005.39,0004.83
